CZ-4 DEB, 35330

Orbit data source: Space-Track

CZ-4 DEB, 35330 is space debris in SSO originally from a launch on Thu, 14 Oct 1999 UTC launched from the Taiyaun Space Center, China (TSC). Debris objects in space refer to the collection of defunct objects orbiting the Earth. Examples of debris include non-operational satellites, rocket bodies, and fragments generated from explosions, collisions, or faulty payload assembly.

Loading next visibility...
Identifier
35330, 1999-057SJ
Orbit
SSO
Country
Flag of CNCN / PRC
Related business
Manufacturer
Unknown
Mission
Spacecraft
Bus & Motor
Unknown
Mass
Unknown
Launch date (UTC)
1999-10-14 (26 years ago)
Launch vehicle
Unknown
Launch site
Taiyaun Space Center, China (TSC)
Object type
Payload
Rocket body
Debris
Shape & HBR
Unknown shape, 0.1 m
Radar Cross Section
Small (<0.1 m²)

Expand to show TLE details & history
Last TLE update: 7 hours ago

TLE from 7 hours ago
0 CZ-4 DEB
1 35330U 99057SJ  26038.08258060  .00000919  00000-0  27358-3 0  9999
2 35330  98.6642  86.8367 0081464  48.5154 312.2992 14.43695359201863
Epoch: 2026-02-07T01:58Z
TLE epoch observation values (Epoch: 2026-02-07T01:58:54.963Z)
Latitude
-0.00001°
Longitude
-80.10352°
Altitude
710.456 km
Speed
7.521 km/s
True Right ascension
05h 47m 20s
True Declination
0° 00' 00"
Sunlit
Object was in full shadow at epoch
Visualization orbit readout
Latitude
Unknown
Longitude
Unknown
Altitude
Unknown
Speed
Unknown
Apparent Right ascension
Unknown
Apparent Declination
Unknown
Sunlit
N/A
Visualization observer readout
Local Sidereal Time
10:40:11
Azimuth
Unknown
Elevation
Unknown
Doppler factor
Unknown
Orbital elements
Apogee altitude
801.455 km
Perigee altitude
685.424 km
Semi-major axis
7,121.577 km
Eccentricity
0.00815
Inclination
98.6642°
RAAN
86.8367°
Arg. of periapsis
48.5154°
True anomaly
311.60399°
Mean anomaly
312.2992°
Eccentric anomaly
311.95207°
Mean motion
3.61143 °/min
Orbital period
99.68 mins
BSTAR
0.00027358
Loading maneuver chart data...
Computing Atmospheric mass density...

Documentation

Showing up to 5 results
|